Flag for U.S.A. Weather past 2 weeks in Lansing, Michigan, U.S.A.

Now
66 °F

Sunny.


Feels Like: 66 °F
Forecast: 53 / 76 °F
Wind: 10 mph from Southwest

Location: Capital City Airport

Current Time: Jul 25, 2014 at 10:48:29 AM

Latest Report: Jul 25, 2014 at 9:53 AM


Visibility: 10 mi

Pressure: 30.09 "Hg

Humidity: 65%

Dew point: 54 °F

Location of LansingLocation

Historic Weather in Lansing — Graph

°F

Lansing temperature yesterday

Maximum temperature yesterday: 73 °F (at 4:53 PM)
Minimum temperature yesterday: 54 °F (at 6:53 AM)
Average temperature yesterday: 64 °F

Past Weeks' High & Low Weather Summary

 TemperatureHumidityPressure
High84 °F (Jul 21, 5:53 PM)96% (Jul 14, 6:53 AM)30.24 "Hg (Jul 14, 6:53 AM)
Low51 °F (Jul 16, 2:53 AM)39% (Jul 17, 5:53 PM)29.75 "Hg (Jul 15, 3:53 AM)
Average68 °F69%30.03 "Hg
* Reported Jul 10 9:53 AM — Jul 25 9:53 AM, Lansing, Weather by CustomWeather, © 2014

Note: Actual official high and low records may vary slightly from our data, if they occured in-between our weather recording intervals... More about our weather records

Advertising

Lansing weather history for previous 24 hours

 ConditionsComfort  
Time TempWeatherWind HumidityBarometerVisibility
9:53 AM
Jul 25
66 °FSunny.10 mph65%30.09 "Hg10 mi
8:53 AM60 °FSunny.No wind78%30.09 "Hg10 mi
7:53 AM59 °FSunny.N/A78%30.08 "Hg10 mi
6:53 AM53 °FClear.5 mph89%30.05 "Hg10 mi
5:53 AM53 °FClear.3 mph89%30.06 "Hg10 mi
4:53 AM54 °FClear.No wind90%30.07 "Hg10 mi
3:53 AM55 °FClear.No wind90%30.06 "Hg10 mi
2:53 AM55 °FClear.No wind90%30.06 "Hg10 mi
1:53 AM57 °FClear.No wind87%30.06 "Hg10 mi
12:53 AM59 °FClear.No wind78%30.07 "Hg10 mi
11:53 PM
Jul 24
56 °FClear.No wind87%30.08 "Hg10 mi
10:53 PM61 °FClear.No wind78%30.07 "Hg10 mi
9:53 PM61 °FSunny.No wind75%30.07 "Hg10 mi
8:53 PM68 °FSunny.3 mph55%30.07 "Hg10 mi
7:53 PM70 °FScattered clouds.6 mph49%30.08 "Hg10 mi
6:53 PM73 °FSunny.3 mph40%30.06 "Hg10 mi
5:53 PM73 °FPassing clouds.3 mph40%30.06 "Hg10 mi
4:53 PM73 °FSunny.5 mph43%30.08 "Hg10 mi
3:53 PM72 °FScattered clouds.5 mph44%30.10 "Hg10 mi
2:53 PM71 °FPartly sunny.8 mph42%30.12 "Hg10 mi
1:53 PM72 °FScattered clouds.8 mph46%30.13 "Hg10 mi
12:53 PM68 °FPartly sunny.7 mph51%30.14 "Hg10 mi
11:53 AM68 °FBroken clouds.6 mph55%30.15 "Hg10 mi
10:53 AM68 °FSunny.6 mph61%30.15 "Hg10 mi
Weather by CustomWeather, © 2014

See weather overviewHow to use our weather pages